Mobile, AL

5:35 AM CST on February 24, 2017 (GMT -0600)
Mobile Downtown

Weather History for KBFM - March, 2013

Change the Weather History Date:

Sunday, March 3, 2013

  Actual Average Record
Temperature  
Mean Temperature 42 °F -  
Max Temperature 54 °F 64 °F 73 °F (1997)
Min Temperature 30 °F 46 °F 30 °F (2013)
Degree Days  
Heating Degree Days 23    
Moisture  
Dew Point 24 °F    
Average Humidity 54    
Maximum Humidity 92    
Minimum Humidity 25    
Precipitation  
Precipitation 0.00 in - - ()
Sea Level Pressure  
Sea Level Pressure 30.20 in    
Wind  
Wind Speed 9 mph (WNW)    
Max Wind Speed 14 mph    
Max Gust Speed 16 mph    
Visibility 10 miles    
Events      
Averages and records for this station are not official NWS values.
T = Trace of Precipitation, MM = Missing Value Source: NWS Daily Summary

Daily Weather History Graph

Daily Weather History Graph

Search for Another Location

Airport or City:

Trip Planner

Search our weather history database for the weather conditions in past years. The results will help you decide how hot, cold, wet, or windy it might be!

Date:

Astronomy

Mar. 03, 2013 Rise Set
Actual Time 6:16 AM CST 5:52 PM CST
Civil Twilight 5:51 AM CST 6:16 PM CST
Nautical Twilight 5:24 AM CST 6:44 PM CST
Astronomical Twilight 4:56 AM CST 7:12 PM CST
Moon No Moon Rise 9:57 AM CST (3/3)
Length of Visible Light 12h 24m
Length of Day
11h 36m
Waning Gibbous, 63% of the Moon is Illuminated
Mar 3
Waning Gibbous
Mar 4
Last Quarter
Mar 11
New
Mar 19
First Quarter
Mar 27
Full

Hourly Weather History & Observations

Time (CST) Temp. Windchill Dew Point Humidity Pressure Visibility Wind Dir Wind Speed Gust Speed Precip Events Conditions
12:53 AM 36.0 °F 28.5 °F 23.0 °F 59% 30.22 in 10.0 mi NW 10.4 mph - N/A   Mostly Cloudy
1:53 AM 37.0 °F 29.3 °F 21.9 °F 54% 30.22 in 10.0 mi NW 11.5 mph - N/A   Overcast
3:53 AM 34.0 °F 27.2 °F 21.9 °F 61% 30.19 in 10.0 mi NW 8.1 mph - N/A   Mostly Cloudy
4:53 AM 32.0 °F 26.4 °F 21.9 °F 66% 30.20 in 10.0 mi NW 5.8 mph - N/A   Clear
5:53 AM 30.0 °F 24.1 °F 21.9 °F 72% 30.23 in 10.0 mi WNW 5.8 mph - N/A   Clear
6:53 AM 32.0 °F 24.2 °F 23.0 °F 69% 30.24 in 10.0 mi NW 9.2 mph - N/A   Partly Cloudy
7:53 AM 36.0 °F 27.5 °F 23.0 °F 59% 30.25 in 10.0 mi NNW 12.7 mph - N/A   Partly Cloudy
8:53 AM 37.9 °F 30.0 °F 23.0 °F 55% 30.26 in 10.0 mi North 12.7 mph - N/A   Partly Cloudy
9:53 AM 41.0 °F 33.5 °F 21.9 °F 47% 30.25 in 10.0 mi NNW 13.8 mph - N/A   Partly Cloudy
10:53 AM 43.0 °F 38.2 °F 19.9 °F 40% 30.22 in 10.0 mi North 8.1 mph - N/A   Clear
11:53 AM 46.9 °F - 19.9 °F 34% 30.21 in 10.0 mi NW 9.2 mph - N/A   Clear
12:53 PM 48.9 °F - 19.0 °F 31% 30.18 in 10.0 mi NNW 11.5 mph 16.1 mph N/A   Clear
1:53 PM 52.0 °F - 19.0 °F 27% 30.15 in 10.0 mi NNW 11.5 mph - N/A   Clear
2:53 PM 53.1 °F - 18.0 °F 25% 30.15 in 10.0 mi Variable 5.8 mph 16.1 mph N/A   Clear
3:53 PM 54.0 °F - 19.0 °F 25% 30.16 in 10.0 mi NW 8.1 mph - N/A   Clear
4:53 PM 53.1 °F - 19.0 °F 26% 30.16 in 10.0 mi WNW 4.6 mph - N/A   Clear
5:53 PM 48.9 °F - 21.0 °F 33% 30.17 in 10.0 mi West 3.5 mph - N/A   Clear
6:53 PM 42.1 °F 40.2 °F 28.9 °F 60% 30.18 in 10.0 mi WSW 3.5 mph - N/A   Clear
7:53 PM 39.9 °F 37.8 °F 30.0 °F 68% 30.19 in 10.0 mi SW 3.5 mph - N/A   Clear
8:53 PM 39.0 °F 35.7 °F 30.9 °F 73% 30.20 in 10.0 mi WSW 4.6 mph - N/A   Clear
9:53 PM 37.0 °F 34.5 °F 32.0 °F 82% 30.20 in 10.0 mi SW 3.5 mph - N/A   Clear
10:53 PM 37.0 °F 33.3 °F 33.1 °F 86% 30.19 in 10.0 mi SW 4.6 mph - N/A   Clear
11:53 PM 35.1 °F 32.2 °F 33.1 °F 92% 30.18 in 10.0 mi WSW 3.5 mph - N/A   Clear